Regional Weather Roundup
Issued by NWS Albany, NY

Home | Current Version | Previous Version | Text Only | Print | Product List | Glossary On
Versions: 1 2 3 4 5 6 7 8 9 10 11 12 13 14 15 16 17 18 19 20 21 22 23 24 25 26 27 28 29 30 31 32 33 34 35 36 37 38 39 40 41 42 43 44 45 46 47 48 49 50
000
ASUS41 KALY 300910
RWRALY

NEW YORK STATE HOURLY WEATHER ROUNDUP
NATIONAL WEATHER SERVICE ALBANY NY
500 AM EDT TUE JUN 30 2015

NOTE: "FAIR" INDICATES FEW OR NO CLOUDS BELOW 12,000 FEET WITH NO
SIGNIFICANT WEATHER AND/OR NO OBSTRUCTIONS TO VISIBILITY.

NYZ032-033-038>043-046>054-057>066-NYZ062>081-301000-
EAST


CITY           SKY/WX    TMP DP  RH WIND       PRES   REMARKS
ALBANY         MOCLDY    58  55  90 CALM      29.97R
GLENS FALLS    MOCLDY    57  55  93 CALM      29.97R
POUGHKEEPSIE   CLOUDY    63  59  87 N3        29.95S
NEWBURGH       PTCLDY    64  63  94 CALM      29.96S
MONTGOMERY     MOCLDY    61  59  93 N3        29.95S
WHITE PLAINS   CLEAR     61  58  90 CALM      29.95F
ISLIP          CLEAR     66  63  90 SW3       29.95S
NEW YORK CITY  PTCLDY    69  58  67 CALM      29.94F
CENTRAL PARK   CLEAR     69  57  65 CALM      29.98S
$$

NYZ005>009-017-018-044>046-055-056-301000-
CENTRAL


CITY           SKY/WX    TMP DP  RH WIND       PRES   REMARKS
FULTON         CLEAR     58  55  90 CALM      29.91S
SYRACUSE       MOCLDY    56  55  97 E7        29.92S
ROME           CLOUDY    54  52  93 CALM      29.95F
ELMIRA         LGT RAIN  62  60  93 CALM      29.91S
BINGHAMTON     LGT RAIN  59  57  93 E7        29.95S
MONTICELLO     CLOUDY    57  55  94 CALM      29.99S
$$

NYZ026>034-041>043-301000-
NORTH


CITY           SKY/WX    TMP DP  RH WIND       PRES   REMARKS
WATERTOWN      CLEAR     50  49  96 E6        29.91S
FORT DRUM      NOT AVBL
MASSENA        CLEAR     53  51  93 CALM      29.92S
SARANAC LAKE   FOG       43  43 100 CALM      29.96S VSB 3/4
PLATTSBURGH    PTCLDY    52  51  97 CALM      29.94R FOG
$$

NYZ001>004-010>016-019>021-301000-
WEST


CITY           SKY/WX    TMP DP  RH WIND       PRES   REMARKS
NIAGARA FALLS  CLOUDY    61  58  90 E5        29.85S
BUFFALO        LGT RAIN  63  56  78 SW6       29.86S
DUNKIRK        LGT RAIN  62  59  90 NE6       29.83F
JAMESTOWN      CLOUDY    57  54  88 E7        29.86F
WELLSVILLE     CLOUDY    59  56  89 SE7       29.92F
ROCHESTER      CLOUDY    62  59  90 S3        29.89S
PENN YAN       CLOUDY    62  60  93 CALM      29.91F
$$

             KEY
       WCI = WIND CHILL INDEX
       VSB = VISIBILITY
       HX  = HEAT INDEX
$$



USA.gov is the U.S. government's official web portal to all federal, state and local government web resources and services.